User: anonymous   Login
Location: Gipe Farm
(40.9466°N, 95.5370°W)
Time: 08:55:39
(UTC-05:00)
Language:

Cosmos 1842 - Orbit

View from above orbital plane
View from above orbital plane
View from above satellite
View from above satellite

Ground track
Ground track

The orbit data is extracted from the following two-line orbital elements,

1 17911U 87038A   16181.11300718  .00000155  00000-0  74630-5 0  9999
2 17911  82.5228 178.6838 0012273  27.7655 332.4227 15.10700439588493
Epoch (UTC): 29 June 2016 02:42:43
Eccentricity: 0.0012273
inclination: 82.5228°
perigee height: 525 km
apogee height: 542 km
right ascension of ascending node: 178.6838°
argument of perigee: 27.7655°
revolutions per day: 15.10700439
mean anomaly at epoch: 332.4227°
orbit number at epoch: 58849

The dashed part of the orbit path shows where the satellite is in the earth's shadow,  

DLR